Regional Weather Roundup
Issued by NWS Charleston, SC

Current Version | Previous Version | Text Only | Print | Product List | Glossary Off
Versions: 1 2 3 4 5 6 7 8 9 10 11 12 13 14 15 16 17 18 19 20 21 22 23 24 25 26 27 28 29 30 31 32 33 34 35 36 37 38 39 40 41 42 43 44 45 46 47 48 49 50

000
ASUS42 KCHS 291610
RWRCHS
REGIONAL WEATHER ROUNDUP
NATIONAL WEATHER SERVICE CHARLESTON SC
1200 PM EDT WED OCT 29 2014

NOTE: "FAIR" INDICATES FEW OR NO CLOUDS BELOW 12,000 FEET WITH NO
SIGNIFICANT WEATHER AND/OR OBSTRUCTIONS TO VISIBILITY.

NOT ALL STATIONS ARE QUALITY CONTROLLED BY THE NATIONAL
WEATHER SERVICE. USE DATA WITH CAUTION...ESPECIALLY
DEWPOINT OBSERVATIONS.

SCZ027-030-031-034>040-042>050-291700-
...SOUTH CAROLINA...

CITY           SKY/WX    TMP DP  RH WIND       PRES   REMARKS
N CHARLESTON   PTSUNNY   78  63  59 SW8       30.09F
WATERFRONT PRK   N/A     75 N/A N/A W6          N/A
FORT JOHNSON   NOT AVBL
JOHNS ISLAND   SUNNY     77  70  78 CALM      30.10F
PINOPOLIS      NOT AVBL
MONCKS CORNER  FAIR      79  66  65 SW9       30.08F
SUMMERVILLE    FAIR      77  64  65 SW6       30.09F
BEAUFORT MCAS  PTSUNNY   77  69  76 SW7       30.08F
BEAUFORT ARPT  FAIR      77  64  65 W9        30.10F
HILTON HEAD IS PTSUNNY   79  64  61 SW7       30.12F
GEORGETOWN     NOT AVBL
WALTERBORO     PTSUNNY   79  59  50 SW8       30.09F
ORANGEBURG     MOSUNNY   76  59  55 W7        30.08F
BARNWELL       FAIR      79  63  57 W9        30.08F
AIKEN          FAIR      77  64  65 SW9       30.10F
MANNING        FAIR      77  64  65 SW8       30.08S
KINGSTREE      NOT AVBL
COLUMBIA       PTSUNNY   78  58  49 W10       30.05F
SUMTER         PTSUNNY   76  59  56 W15       30.05F
FLORENCE       PTSUNNY   76  60  57 W9        30.06F
MYRTLE BEACH   PTSUNNY   79  63  57 SW12      30.07F
N MYRTLE BEACH PTSUNNY   78  62  57 SW9       30.06F

$$

GAZ063-065-086>088-099>101-113>116-118-119-134-136>141-150-291700-
...GEORGIA...

CITY           SKY/WX    TMP DP  RH WIND       PRES   REMARKS
SAVANNAH ARPT  PTSUNNY   80  62  54 W7        30.11F
HUNTER AAF     PTSUNNY   78  63  60 W6        30.09F
FORT STEWART   MOSUNNY   79  62  55 W8        30.09F
STATESBORO     NOT AVBL
SYLVANIA       PTSUNNY   80  69  70 W5        30.11S
CLAXTON        FAIR      79  64  61 CALM      30.10F
THOMSON        SUNNY     79  69  72 W6        30.11F
AUGUSTA-BUSH   SUNNY     80  61  52 W12G21    30.06F
AUGUSTA-DANIEL MOSUNNY   79  63  57 SW10      30.08F
SWAINSBORO     FAIR      77  68  73 MISG      30.11S
VIDALIA        MOSUNNY   79  63  57 SW7       30.11F
ALMA           MOSUNNY   78  59  51 W6        30.11F
WAYCROSS       MOSUNNY   80  64  58 W3        30.11F
JESUP          FAIR      81  64  57 SW3       30.11F
BRUNSWICK      MOSUNNY   75  63  64 W5        30.13S
SAINT SIMONS   MOSUNNY   75  65  70 W6        30.12F

$$

SCZ027-028-034-036>038-045-046-048>050-GAZ119-141-291700-
...LAKE AND SUPPLEMENTAL COASTAL OBSERVATIONS...

STATION/POSITION TIME  TEMP    WIND        PRES    WAVE   SWELL
                       AIR SEA DIR/SP/G            HT/PER HT/PER/DIR
                 (UTC) (F)     (DEG/KT/KT) (MB)    (FT/S) (FT/S/D)
UPR LAKE MARION  NOT AVBL
WINYAH BAY       1500   73     250/  7     1019.0S
LAKE MURRAY      1500   71     240/  9/ 12 1017.3F
ACE BASIN NERRS  1500   72     250/  1     1019.0F
FORT PULASKI     1600          290/  5/  6 1019.8F
SAPELO ISLAND    NOT AVBL

$$

ANZ835-935-AMZ111-154-330-350-352-354-374-450-454-472-291700-
...C-MAN AND BUOY OBSERVATIONS...

STATION/POSITION TIME  TEMP    WIND        PRES    WAVE   SWELL
                       AIR SEA DIR/SP/G            HT/PER HT/PER/DIR
                 (UTC) (F)     (DEG/KT/KT) (MB)    (FT/S) (FT/S/D)
FOLLY BEACH CMAN 1500   73     240/  6/  8 1020.0F
BUOY 41004       1600   74 76  280/ 14/ 16 1018.8F   3/ 4   2/ 7
BUOY 41008       1600   71 74  310/  8/  8 1019.9F   1/ 7   2/100/ 7
5E ST. MARYS GA  1600      76                N/A     1/10
FRYING PAN BUOY  1600   74 74  260/ 17/ 21 1018.8F   3/ 5   2/ 70/ 8
BUOY 41025       1600   76     250/ 17/ 19 1017.4F   4/ 5
CAPE LOOKOUT NC  1500   73     230/  7/  9 1018.3F
BUOY 41002       1514   76 77  190/  4/  6 1021.0F   2/ 9   2/100/ 9
BUOY 41010       1600   79 82  290/  2/  4 1019.8F   2/ 8   2/ 90/ 8
BUOY 41012       NOT AVBL
ST AUGUSTINE FL  1600   80     250/  3/  5 1020.4F
CAPERS NEARSHORE 1500   72     260/ 12/ 14   N/A
FRIPP NEARSHORE  NOT AVBL


$$



USA.gov is the U.S. government's official web portal to all federal, state and local government web resources and services.